Location: Aufkirchen
(47.9603°N, 11.3653°E)
Time: 07:05:53
(UTC+01:00)

Transit 2A - Pass Details

Date: 29 November 2020
Orbit: 598 x 960 km, 66.7° (Epoch: 16 January)

Event Time Altitude Azimuth Distance (km) Brightness Sun altitude
Rises 21:38:32 0° 303° (WNW) 3,524 10.1 -51.0°
Enters shadow 21:40:54 - 317° (NW) 2,927 9.5 -51.3°
Reaches altitude 10° 21:43:22 10° 337° (NNW) 2,494 - -51.7°
Maximum altitude 21:45:02 11° 354° (N) 2,376 - -51.9°
Drops below altitude 10° 21:46:40 10° 11° (NNE) 2,424 - -52.1°
Sets 21:51:07 0° 46° (NE) 3,247 - -52.8°
